This demonstration page uses our WeatherBlox Daily Observations layout. Learn more.

Hourly Observations for September 26, 2020

Temp ( °F °C ) Dew Point ( °F °C ) Humidity (%) Winds ( mph kmh ) Pressure ( in mb ) Visibility ( mi km ) Precip ( " mm )
12:15 am 00:15 Clear 62 16.9 55 12.5 75 75 Calm 29.69 1006 10 16.0934 0 0
12:35 am 00:35 Clear 62 16.4 54 12.4 77 77 E 7 11 29.69 1005 10 16.0934 0 0
12:55 am 00:55 Clear 63 17 55 13 77 77 ENE 5 7 29.69 1006 10 16.0934 0 0
1:15 am 01:15 Clear 60 15.5 55 12.6 83 83 ENE 3 6 29.69 1005 10 16.0934 0 0
1:35 am 01:35 Clear 59 15 55 12.5 85 85 NE 3 6 29.68 1005 10 16.0934 0 0
1:55 am 01:55 Clear 58 14.6 55 12.5 87 87 Calm 29.67 1005 10 16.0934 0 0
2:15 am 02:15 Clear 58 14.5 54 12.4 87 87 Calm 29.66 1005 10 16.0934 0 0
2:35 am 02:35 Clear 58 14.2 53 11.9 86 86 Calm 29.66 1004 10 16.0934 0 0
2:55 am 02:55 Clear 60 15.3 55 12.8 85 85 SSE 5 7 29.67 1005 10 16.0934 0 0
3:15 am 03:15 Clear 59 15.2 55 12.6 85 85 S 6 9 29.66 1004 10 16.0934 0 0
3:35 am 03:35 Clear 64 17.6 55 13 75 75 S 8 13 29.64 1004 10 16.0934 0 0
3:55 am 03:55 Clear 62 16.6 55 12.7 78 78 S 8 13 29.64 1004 10 16.0934 0 0
4:15 am 04:15 Clear 64 17.6 55 12.7 73 73 S 9 15 29.63 1003 10 16.0934 0 0
4:35 am 04:35 Clear 64 17.8 55 12.5 71 71 S 9 15 29.62 1003 10 16.0934 0 0
4:55 am 04:55 Clear 64 17.8 54 12.1 69 69 S 9 15 29.61 1003 10 16.0934 0 0
5:15 am 05:15 Clear 65 18.1 53 11.7 66 66 S 10 17 29.6 1002 10 16.0934 0 0
5:35 am 05:35 Clear 65 18.1 53 11.6 66 66 SSW 10 17 29.6 1002 10 16.0934 0 0
5:55 am 05:55 Clear 64 17.8 53 11.5 67 67 SSW 7 11 29.6 1002 10 16.0934 0 0
6:15 am 06:15 Clear 64 17.6 53 11.5 68 68 SSW 8 13 29.6 1002 10 16.0934 0 0
6:35 am 06:35 Clear 63 17.1 52 11.3 69 69 SSW 6 9 29.6 1002 10 16.0934 0 0
6:55 am 06:55 Clear 62 16.7 52 11.1 70 70 SW 6 9 29.61 1003 10 16.0934 0 0
7:15 am 07:15 Clear 62 16.5 52 11 70 70 SW 8 13 29.61 1003 10 16.0934 0 0
7:35 am 07:35 Sunny 59 15 52 11 77 77 NW 7 11 29.64 1004 10 16.0934 0 0
7:55 am 07:55 Sunny 58 14.2 51 10.8 80 80 WSW 3 6 29.65 1004 10 16.0934 0 0
8:15 am 08:15 Sunny 60 15.5 53 11.5 77 77 SW 3 6 29.65 1004 10 16.0934 0 0
8:35 am 08:35 Sunny 61 16.3 53 11.5 73 73 Calm 29.64 1004 10 16.0934 0 0
8:55 am 08:55 Sunny 63 17.3 53 11.6 69 69 W 5 7 29.63 1003 10 16.0934 0 0
9:15 am 09:15 Sunny 64 17.5 53 11.8 69 69 W 3 6 29.63 1003 10 16.0934 0 0
9:35 am 09:35 Sunny 67 19.3 54 12.2 64 64 Calm 29.61 1003 10 16.0934 0 0
9:55 am 09:55 Partly Cloudy 69 20.8 54 12.4 59 59 Calm 29.6 1002 10 16.0934 0 0
10:15 am 10:15 Partly Cloudy 72 22.1 55 12.6 55 55 W 3 6 29.58 1002 10 16.0934 0 0
10:35 am 10:35 Cloudy 73 22.7 55 12.9 54 54 Calm 29.57 1001 10 16.0934 0 0
10:55 am 10:55 Cloudy 74 23.4 55 12.9 52 52 SW 3 6 29.58 1002 10 16.0934 0 0
11:15 am 11:15 Partly Cloudy 76 24.2 55 12.8 49 49 SW 5 7 29.57 1001 7 11.26538 0 0
11:35 am 11:35 Partly Cloudy 76 24.2 56 13.1 50 50 SW 9 15 29.57 1001 10 16.0934 0 0
11:55 am 11:55 Mostly Cloudy 75 24.1 54 12.3 48 48 SW 8 13 29.57 1001 10 16.0934 0 0
12:15 pm 12:15 Partly Cloudy 75 24.1 54 12.3 48 48 W 8 13 29.58 1002 10 16.0934 0 0
12:35 pm 12:35 Partly Cloudy 77 24.8 53 11.7 44 44 SW 8 13 29.57 1001 10 16.0934 0 0
12:55 pm 12:55 Sunny 79 26 52 11.3 40 40 SSW 8 13 29.55 1001 10 16.0934 0 0
1:15 pm 13:15 Sunny 82 27.6 51 10.3 34 34 SSW 9 15 29.53 1000 10 16.0934 0 0
1:35 pm 13:35 Sunny 84 29 51 10.3 31 31 SW 7 11 29.52 1000 10 16.0934 0 0
1:55 pm 13:55 Sunny 85 29.5 49 9.7 29 29 SW 6 9 29.51 999 10 16.0934 0 0
2:15 pm 14:15 Sunny 86 30.1 50 9.9 28 28 SSW 8 13 29.5 999 10 16.0934 0 0
2:35 pm 14:35 Sunny 87 30.8 49 9.6 27 27 SSW 8 13 29.48 998 10 16.0934 0 0
2:55 pm 14:55 Sunny 88 31.2 48 9.1 25 25 SSW 7 11 29.49 999 10 16.0934 0 0
3:15 pm 15:15 Sunny 87 30.7 50 9.9 28 28 SSW 9 15 29.48 998 10 16.0934 0 0
3:35 pm 15:35 Sunny 88 31.1 51 10.3 28 28 SSW 9 15 29.48 998 10 16.0934 0 0
3:55 pm 15:55 Sunny 88 31 50 9.9 27 27 SW 9 15 29.48 998 10 16.0934 0 0
4:15 pm 16:15 Sunny 88 31.1 49 9.5 26 26 SSW 8 13 29.49 999 10 16.0934 0 0
4:35 pm 16:35 Sunny 88 31.2 49 9.2 25 25 SSW 12 19 29.48 998 10 16.0934 0 0
4:55 pm 16:55 Sunny 88 31.3 50 10 27 27 SSW 10 17 29.5 999 10 16.0934 0 0
5:15 pm 17:15 Sunny 88 31 49 9.6 26 26 SSW 12 19 29.48 998 10 16.0934 0 0
5:35 pm 17:35 Sunny 88 31.1 49 9.5 26 26 SSW 8 13 29.49 999 10 16.0934 0 0
5:55 pm 17:55 Sunny 87 30.6 49 9.7 27 27 SSW 7 11 29.49 999 10 16.0934 0 0
6:15 pm 18:15 Sunny 85 29.3 50 10 30 30 SSW 6 9 29.51 999 10 16.0934 0 0
6:35 pm 18:35 Sunny 84 28.7 50 10.1 31 31 SSW 6 9 29.52 1000 7 11.26538 0 0
6:55 pm 18:55 Sunny 82 27.6 51 10.3 34 34 SSW 6 9 29.53 1000 10 16.0934 0 0
7:15 pm 19:15 Sunny 80 26.5 44 6.5 28 28 N 12 19 29.58 1002 10 16.0934 0 0
7:35 pm 19:35 Clear 77 25 42 5.5 29 29 NNE 12 19 29.6 1002 10 16.0934 0 0
7:55 pm 19:55 Clear 75 23.8 42 5.5 31 31 NNE 12 19 29.62 1003 10 16.0934 0 0
8:15 pm 20:15 Clear 74 23.1 42 5.8 33 33 NNE 7 11 29.61 1003 10 16.0934 0 0
8:35 pm 20:35 Clear 72 22.2 43 6.2 36 36 NE 9 15 29.62 1003 10 16.0934 0 0
8:55 pm 20:55 Clear 71 21.8 43 6.2 36 36 NE 9 15 29.64 1004 10 16.0934 0 0
9:15 pm 21:15 Clear 69 20.6 44 6.9 41 41 N 10 17 29.68 1005 10 16.0934 0 0
9:35 pm 21:35 Clear 69 20.7 44 6.9 41 41 N 20 31 29.71 1006 10 16.0934 0 0
9:55 pm 21:55 Clear 67 19.6 46 7.8 47 47 NNE 15 24 29.73 1007 10 16.0934 0 0
10:15 pm 22:15 Clear 66 19 46 8 49 49 NNE 12 19 29.74 1007 10 16.0934 0 0
10:35 pm 22:35 Clear 65 18.6 46 8 50 50 NNE 14 22 29.74 1007 10 16.0934 0 0
10:55 pm 22:55 Clear 64 18 46 7.9 52 52 NNE 13 20 29.75 1008 10 16.0934 0 0
11:15 pm 23:15 Clear 64 17.8 46 7.9 53 53 N 9 15 29.75 1007 10 16.0934 0 0
11:35 pm 23:35 Clear 64 17.5 46 7.8 53 53 NNE 12 19 29.75 1007 10 16.0934 0 0
11:55 pm 23:55 Clear 63 17.3 46 7.8 54 54 NNE 10 17 29.75 1007 10 16.0934 0 0

Powered by AerisWeather